Location: Splawn
(30.9202°N, 96.9858°W)
Time: 11:54:56
(UTC+00:00)

Explorer 7 - All Passes

Search period start: 28 February 2020 00:00
Search period end: 09 March 2020 00:00
Orbit: 485 x 679 km, 50.3° (Epoch: 27 February)

Date Brightness Start Highest point End Pass type
(mag) Time Alt. Az. Time Alt. Az. Time Alt. Az.
28 Feb - 13:22:58 10° SE 13:24:39 12° SE 13:26:19 10° ESE daylight
28 Feb - 14:59:50 10° SW 15:04:45 89° NNW 15:09:34 10° NE daylight
28 Feb - 16:42:34 10° WNW 16:45:51 18° NNW 16:49:03 10° NNE daylight
28 Feb - 21:49:09 10° NNW 21:52:41 24° NNE 21:56:01 10° E daylight
28 Feb - 23:29:27 10° WNW 23:33:18 39° SW 23:36:57 10° SSE daylight
29 Feb - 13:25:41 10° S 13:29:20 21° SE 13:32:58 10° ENE daylight
29 Feb - 15:04:53 10° WSW 15:09:40 54° NW 15:14:23 10° NE daylight
29 Feb - 16:48:53 10° NW 16:51:05 13° NNW 16:53:16 10° N daylight
29 Feb - 21:53:44 10° NNW 21:57:45 39° NE 22:01:32 10° ESE daylight
29 Feb - 23:34:55 10° WNW 23:38:02 21° SW 23:41:01 10° S daylight
01 Mar - 13:29:35 10° SSW 13:34:03 36° SE 13:38:31 10° ENE daylight
01 Mar - 15:10:14 10° WSW 15:14:41 34° NW 15:19:03 10° NNE daylight
01 Mar - 20:19:19 10° N 20:21:28 13° NNE 20:23:34 10° NE daylight
01 Mar - 21:58:27 10° NW 22:02:44 69° NE 22:06:44 10° SE daylight
01 Mar - 23:41:37 10° WSW 23:42:41 11° WSW 23:43:44 10° SW daylight
02 Mar - 13:34:01 10° SW 13:38:52 63° SE 13:43:41 10° NE daylight
02 Mar - 15:15:53 10° W 15:19:46 23° NNW 15:23:36 10° NNE daylight
02 Mar - 20:23:31 10° NNW 20:26:42 19° NNE 20:29:45 10° ENE daylight
02 Mar - 22:03:22 10° NW 22:07:36 63° SW 22:11:34 10° SE daylight
03 Mar - 12:01:02 10° SSE 12:03:35 14° SE 12:06:08 10° E visible
03 Mar - 13:38:50 10° SW 13:43:44 77° NW 13:48:37 10° NE daylight
03 Mar - 15:21:52 10° WNW 15:24:57 16° NNW 15:28:01 10° NNE daylight
03 Mar - 20:27:59 10° NNW 20:31:51 29° NE 20:35:30 10° E daylight
03 Mar - 22:08:33 10° WNW 22:12:24 33° SW 22:16:01 10° SSE daylight
04 Mar - 12:04:19 10° S 12:08:16 25° SE 12:12:15 10° ENE visible
04 Mar - 13:43:58 10° WSW 13:48:41 47° NW 13:53:23 10° NE daylight
04 Mar - 15:28:18 10° NW 15:30:15 12° NNW 15:32:10 10° N daylight
04 Mar - 18:53:57 10° N 18:55:22 11° NNE 18:56:46 10° NE daylight
04 Mar - 20:32:37 10° NW 20:36:54 47° NE 20:40:54 10° ESE daylight
04 Mar - 22:14:11 10° W 22:17:05 18° SW 22:19:52 10° S daylight
05 Mar - 12:08:25 10° SSW 12:13:01 43° SE 12:17:39 10° ENE visible
05 Mar - 13:49:24 10° W 13:53:44 30° NW 13:58:01 10° NNE daylight
05 Mar - 18:57:55 10° NNW 19:00:40 16° NNE 19:03:19 10° ENE daylight
05 Mar - 20:37:24 10° NW 20:41:51 84° NE 20:45:59 10° SE daylight
06 Mar - 12:12:58 10° SW 12:17:49 75° SE 12:22:43 10° NE visible
06 Mar - 13:55:08 10° W 13:58:51 21° NNW 14:02:32 10° NNE daylight
06 Mar - 19:02:17 10° NNW 19:05:52 22° NNE 19:09:18 10° E daylight
06 Mar - 20:42:23 10° NW 20:46:41 52° SW 20:50:42 10° SSE daylight
07 Mar - 10:39:26 10° SSE 10:42:31 17° SE 10:45:37 10° E visible
07 Mar - 12:17:52 10° SW 12:22:43 66° NW 12:27:35 10° NE visible
07 Mar - 14:01:13 10° WNW 14:04:04 15° NNW 14:06:55 10° N daylight
07 Mar - 19:06:49 10° NNW 19:10:59 34° NE 19:14:55 10° ESE daylight
07 Mar - 20:47:39 10° WNW 20:51:26 28° SW 20:55:00 10° S daylight
08 Mar - 10:43:02 10° S 10:47:11 29° SE 10:51:25 10° ENE visible
08 Mar - 12:23:05 10° WSW 12:27:42 40° NW 12:32:19 10° NNE visible
08 Mar - 14:07:48 10° NW 14:09:24 11° NNW 14:10:57 10° N daylight
08 Mar - 17:32:21 10° N 17:34:33 13° NNE 17:36:41 10° NE daylight
08 Mar - 19:11:29 10° NW 19:16:00 57° NE 19:20:12 10° ESE daylight
08 Mar - 20:53:30 10° W 20:56:06 15° SW 20:58:36 10° SSW daylight
